Wind_Speed
29 29 30 32 32 33 34 34 34 34 34 35 36 35 35 34 34 33 34 34 33 33 33 33 33 33 34 34 35 35 35 35 35 35 35 36 37 37 38 38 38 39 40
28 29 29 29 30 31 32 34 33 33 34 35 36 36 35 34 34 35 34 35 35 35 34 34 34 34 35 35 36 36 36 36 37 37 37 38 38 38 39 39 39 40 41
27 28 28 28 29 30 31 32 32 32 33 34 36 36 36 36 35 35 35 36 36 36 36 35 36 36 36 37 37 37 37 37 38 39 39 39 39 39 39 39 40 40 41
26 27 27 28 29 30 31 32 32 33 34 35 36 37 37 38 37 37 37 37 38 38 38 37 37 37 37 38 38 39 39 39 40 40 41 41 41 40 40 40 40 40 41
26 26 27 28 29 30 31 32 32 32 33 34 35 36 37 38 38 39 39 39 38 39 39 38 38 38 38 39 39 40 40 41 42 42 42 41 41 41 41 40 40 40 41
25 26 27 28 29 29 30 31 32 32 33 34 35 36 37 38 38 39 39 39 39 39 39 39 39 39 40 40 41 42 42 43 43 43 42 42 42 42 42 42 42 42 42
24 25 25 26 27 28 29 30 31 32 33 33 34 35 36 37 37 38 39 39 39 39 39 40 40 40 41 42 43 43 43 44 44 44 44 44 44 44 44 43 43 43 42
23 24 24 25 26 27 28 30 31 31 32 33 34 35 36 36 36 37 38 39 40 40 41 42 42 42 43 43 43 44 44 44 45 45 45 45 45 45 45 45 44 44 43
23 24 25 25 26 28 29 30 31 32 32 33 34 35 35 35 36 36 37 38 39 41 42 43 43 44 44 44 44 44 44 45 46 46 46 46 47 47 47 47 46 46 45
24 25 26 27 28 29 29 30 31 32 32 33 33 34 35 35 36 36 37 38 39 41 42 43 44 45 45 45 45 45 46 47 47 47 48 48 49 49 49 49 48 47 47
25 27 28 29 30 31 31 31 31 31 32 33 34 35 36 36 37 38 39 39 39 40 42 44 45 46 46 46 46 46 48 48 48 48 48 48 49 49 49 49 49 49 49
26 27 29 30 30 31 31 31 32 32 33 34 35 36 37 37 37 38 38 39 39 41 42 43 45 46 47 47 47 47 48 48 47 47 48 49 49 49 49 50 50 50 50
26 27 28 30 30 31 31 32 33 34 34 35 36 37 37 37 37 37 38 39 40 41 42 43 44 45 46 47 47 47 47 47 47 47 47 48 48 48 49 49 50 51 51
27 28 29 29 30 31 32 33 34 35 35 36 37 37 37 38 38 38 39 40 41 42 42 43 44 44 45 46 46 45 45 45 45 45 45 46 47 48 48 49 50 51 51
28 28 29 30 31 32 33 34 35 35 36 36 37 37 38 39 39 40 40 41 42 42 43 43 44 44 44 45 45 44 44 44 44 44 44 45 46 46 47 48 48 49 49
29 29 30 30 31 33 33 34 35 36 36 36 37 38 38 39 40 41 41 41 42 43 43 44 44 44 43 43 43 43 43 44 44 44 44 44 44 45 45 46 47 47 47
30 31 31 32 33 33 34 35 36 36 37 37 38 38 39 40 41 41 41 42 42 43 43 44 43 42 41 41 42 42 42 42 42 42 42 42 42 42 43 44 44 45 46
32 32 33 33 34 34 35 36 37 37 38 38 39 39 40 41 41 42 42 42 42 42 42 42 42 42 41 41 41 41 42 41 41 41 41 42 42 42 42 43 43 44 44
33 33 34 34 35 36 36 37 38 38 39 40 40 40 40 41 41 42 42 41 41 41 41 41 41 41 41 41 41 41 41 41 41 41 41 41 41 42 42 42 41 41 42
34 34 35 35 36 37 37 38 38 39 40 40 40 40 40 40 40 40 40 40 40 40 40 41 40 40 40 40 40 40 40 40 40 40 40 40 40 40 40 39 39 40 40
35 35 35 36 37 37 37 38 38 39 39 39 39 39 40 40 40 40 40 40 39 40 40 40 39 39 39 39 39 40 40 39 39 39 39 39 39 39 39 39 39 39 39
36 36 37 37 37 38 38 38 38 39 39 39 39 39 39 39 39 39 39 40 40 40 39 39 39 39 39 39 39 39 38 38 37 37 38 38 38 38 38 38 38 39 39
37 38 38 38 38 38 38 38 38 39 39 38 39 39 38 38 38 38 38 39 39 39 39 38 38 38 38 38 38 38 37 37 37 37 37 37 37 37 38 38 38 39 39
37 37 38 38 38 38 38 38 38 39 39 38 38 38 38 38 38 38 38 38 38 37 37 37 37 37 37 37 37 37 36 36 36 36 36 37 37 37 37 38 38 38 39
37 38 38 38 38 38 38 39 39 39 39 38 38 37 37 37 37 37 37 37 37 37 36 36 37 36 36 36 36 36 35 35 35 35 36 36 36 36 37 37 38 38 38
38 38 38 38 38 38 38 39 39 39 39 38 38 37 37 37 37 37 36 36 36 36 36 36 36 35 35 35 35 35 34 34 34 34 35 35 35 35 36 36 36 37 37
Wind_Direction
235 236 237 238 238 238 240 243 245 247 247 249 250 252 254 255 257 258 259 259 260 261 262 263 265 266 267 269 270 271 272 273 274 275 276 277 278 279 279 278 278 277 277
237 239 242 240 240 241 241 242 245 248 250 250 251 253 256 258 259 259 260 261 262 264 265 265 264 267 268 269 270 271 272 273 274 275 276 277 278 279 279 279 278 278 277
239 238 240 241 241 242 244 246 249 251 253 253 253 255 258 260 261 261 261 262 264 265 266 265 265 268 269 270 271 272 272 273 274 276 277 278 278 279 279 279 278 278 278
243 242 242 244 244 246 248 250 252 254 256 256 256 257 259 260 261 262 262 262 264 265 266 266 267 268 270 270 271 272 273 274 275 277 278 279 279 280 280 279 278 278 278
243 245 245 245 247 249 250 252 254 256 257 256 257 258 259 260 261 261 262 263 264 265 265 266 268 269 269 270 271 272 274 274 276 277 278 278 279 280 281 280 279 278 278
243 246 248 248 249 251 252 253 255 257 258 258 259 260 262 262 263 263 262 263 265 266 267 268 269 269 271 272 272 273 274 274 276 276 277 278 278 279 279 279 279 278 278
244 247 250 251 251 253 254 256 258 259 259 259 261 262 263 264 264 264 264 264 265 266 269 269 270 271 272 273 273 273 274 275 275 276 277 277 278 279 278 279 278 278 277
249 251 253 253 253 255 257 258 260 261 261 261 263 264 265 265 265 265 265 265 265 267 268 270 270 272 273 274 274 274 274 275 275 276 277 277 278 277 278 278 278 277 277
252 254 256 257 258 259 261 261 263 264 264 264 265 266 266 267 267 267 267 267 266 267 268 270 271 272 273 273 274 275 275 275 276 276 276 277 277 277 277 278 279 278 278
255 257 259 261 262 263 264 265 266 267 266 266 266 267 268 269 269 269 270 270 270 270 270 271 273 273 274 276 276 276 275 276 276 276 276 276 276 277 278 279 278 278 279
258 259 260 261 263 265 266 267 268 268 268 269 269 269 270 270 271 271 272 272 273 272 272 272 273 274 275 276 277 277 276 277 277 275 275 276 277 278 278 278 278 278 279
261 262 263 263 265 266 267 268 269 270 271 271 271 271 272 272 273 273 273 274 274 274 274 274 275 276 276 276 276 277 278 277 277 277 277 277 277 278 278 278 278 278 278
264 264 264 265 265 266 268 269 270 271 272 272 273 273 273 273 274 274 275 275 275 276 277 277 278 278 277 278 279 278 278 278 278 278 278 278 278 278 278 278 278 278 277
267 266 266 266 267 267 269 269 271 272 273 274 274 274 273 274 274 276 277 277 277 278 279 278 279 279 280 280 281 280 279 279 280 280 280 280 279 278 279 279 279 279 278
270 270 271 271 270 270 270 271 272 273 274 274 274 274 274 274 275 276 277 278 278 279 280 280 280 280 281 282 281 280 280 281 281 280 281 280 279 279 280 280 280 280 279
271 271 272 273 272 272 272 273 274 275 276 276 275 275 275 274 274 276 277 278 279 280 280 280 280 281 281 282 281 281 280 281 281 281 280 280 280 280 281 281 280 279 279
272 272 273 273 274 274 274 274 275 276 277 277 276 275 275 275 275 276 277 278 279 280 281 282 281 280 280 280 279 280 280 280 280 281 280 280 280 281 282 282 281 280 280
273 273 273 273 275 276 276 277 277 277 277 277 276 275 275 275 275 276 277 278 279 280 280 280 280 280 278 278 278 279 280 281 282 282 282 281 280 280 280 281 281 281 282
273 273 274 274 275 276 278 278 278 277 277 277 277 276 276 276 276 277 278 278 278 278 279 279 280 279 278 278 279 279 280 281 282 282 282 282 282 281 281 281 283 284 285
275 274 275 276 275 276 277 278 278 278 278 278 278 278 278 277 278 278 277 278 278 279 279 279 280 279 278 278 279 280 280 281 281 282 282 282 282 282 283 284 285 286 287
277 277 277 277 277 278 278 279 279 279 279 279 279 280 280 278 278 278 277 277 278 279 279 279 279 279 280 280 280 281 281 281 280 281 281 282 282 283 284 286 287 288 288
279 278 279 279 279 279 279 279 279 280 280 280 280 281 280 279 279 278 278 278 279 279 279 279 278 280 281 282 282 282 282 282 281 282 282 282 283 283 285 286 288 289 290
280 279 279 279 279 280 280 279 279 280 281 281 281 281 281 280 280 279 279 279 279 280 279 279 279 280 281 282 283 283 282 282 282 282 282 282 283 283 284 286 288 289 289
280 280 279 279 280 280 279 278 279 280 281 282 281 281 281 281 280 280 279 279 279 279 279 279 280 281 281 282 282 282 281 281 281 281 282 283 283 284 285 287 288 289 289
280 280 279 279 280 280 280 279 279 280 282 282 282 281 281 281 281 280 280 280 279 279 280 280 280 280 281 282 283 283 282 281 281 281 282 282 282 284 286 287 289 290 290
279 279 279 279 279 279 280 280 280 280 281 281 280 280 281 282 282 281 280 279 279 279 280 280 280 280 281 282 283 283 283 282 281 281 282 282 283 284 286 288 289 290 291
Height
5736 5739 5742 5745 5748 5750 5752 5755 5758 5760 5762 5763 5765 5766 5768 5769 5769 5770 5770 5771 5771 5771 5771 5771 5771 5771 5771 5771 5771 5770 5769 5768 5767 5766 5765 5763 5762 5760 5758 5756 5754 5753 5752
5732 5734 5737 5740 5742 5744 5746 5749 5751 5753 5754 5756 5757 5759 5760 5760 5761 5762 5762 5763 5763 5763 5763 5763 5763 5763 5763 5762 5762 5761 5760 5759 5758 5757 5756 5755 5753 5751 5748 5746 5745 5743 5742
5727 5729 5731 5734 5736 5738 5740 5742 5744 5746 5747 5748 5749 5750 5752 5752 5753 5753 5754 5755 5755 5754 5754 5754 5754 5754 5754 5753 5753 5752 5751 5750 5749 5748 5746 5745 5743 5741 5740 5737 5735 5733 5732
5721 5723 5726 5728 5730 5732 5734 5736 5737 5738 5739 5740 5741 5742 5743 5744 5744 5745 5745 5745 5746 5745 5746 5746 5745 5745 5745 5744 5743 5743 5742 5741 5740 5738 5736 5734 5733 5731 5730 5728 5726 5724 5722
5716 5718 5719 5722 5724 5725 5727 5728 5729 5731 5732 5732 5733 5734 5734 5735 5735 5735 5736 5736 5736 5736 5736 5736 5736 5736 5735 5734 5733 5733 5731 5730 5729 5728 5726 5724 5722 5720 5718 5718 5716 5714 5712
5711 5712 5714 5715 5717 5719 5720 5721 5722 5723 5724 5724 5724 5725 5725 5726 5726 5726 5726 5726 5726 5727 5727 5727 5726 5726 5725 5724 5723 5722 5721 5720 5718 5717 5715 5713 5712 5710 5708 5707 5705 5704 5702
5706 5707 5708 5710 5711 5712 5713 5714 5715 5715 5716 5716 5716 5716 5716 5716 5716 5716 5717 5717 5717 5717 5717 5717 5716 5716 5715 5713 5712 5711 5710 5708 5707 5705 5704 5702 5701 5699 5697 5696 5694 5693 5691
5700 5701 5702 5704 5705 5706 5706 5707 5707 5707 5707 5708 5707 5707 5707 5707 5707 5707 5707 5707 5707 5707 5707 5707 5706 5705 5704 5703 5702 5700 5699 5697 5696 5694 5692 5691 5689 5687 5686 5684 5683 5681 5680
5695 5696 5697 5697 5698 5699 5699 5699 5700 5699 5699 5699 5699 5699 5698 5698 5698 5698 5697 5697 5697 5697 5696 5696 5695 5694 5693 5692 5690 5689 5687 5686 5684 5682 5680 5679 5677 5676 5674 5672 5671 5669 5668
5689 5690 5690 5691 5691 5692 5692 5692 5692 5691 5691 5691 5690 5690 5689 5689 5688 5688 5687 5687 5686 5686 5685 5685 5684 5683 5682 5680 5678 5677 5675 5674 5672 5670 5669 5667 5665 5663 5661 5660 5658 5656 5655
5682 5683 5683 5683 5684 5684 5684 5683 5683 5683 5682 5682 5682 5681 5681 5680 5679 5678 5677 5677 5676 5675 5674 5674 5673 5671 5670 5668 5666 5665 5663 5661 5660 5658 5656 5654 5652 5651 5649 5647 5645 5643 5641
5675 5675 5675 5675 5675 5675 5675 5675 5674 5674 5674 5673 5673 5672 5671 5670 5670 5669 5667 5666 5665 5664 5663 5662 5661 5659 5658 5656 5654 5652 5650 5649 5647 5645 5643 5641 5639 5637 5635 5633 5631 5630 5627
5668 5667 5667 5667 5667 5667 5666 5666 5665 5665 5665 5664 5663 5662 5661 5660 5660 5658 5657 5656 5655 5653 5652 5650 5649 5647 5645 5644 5642 5640 5638 5636 5634 5632 5630 5628 5625 5624 5621 5619 5617 5615 5613
5660 5660 5659 5659 5658 5658 5657 5657 5656 5656 5655 5654 5653 5652 5651 5650 5649 5648 5647 5645 5644 5642 5640 5638 5637 5635 5633 5631 5629 5627 5625 5623 5621 5619 5617 5615 5612 5610 5608 5606 5604 5601 5599
5652 5652 5651 5650 5649 5649 5648 5648 5647 5646 5645 5644 5643 5642 5641 5639 5638 5637 5635 5634 5632 5630 5628 5627 5625 5623 5621 5619 5616 5615 5613 5611 5609 5606 5604 5602 5599 5597 5595 5592 5590 5587 5585
5644 5643 5643 5642 5641 5640 5639 5638 5637 5636 5635 5634 5632 5631 5630 5628 5627 5626 5624 5622 5620 5618 5616 5615 5613 5611 5608 5606 5604 5602 5600 5598 5596 5594 5591 5589 5586 5584 5581 5579 5576 5574 5571
5635 5634 5634 5632 5631 5630 5629 5628 5627 5626 5624 5623 5622 5620 5619 5617 5615 5614 5612 5610 5608 5606 5604 5602 5600 5598 5596 5593 5591 5589 5587 5586 5583 5581 5579 5576 5573 5571 5568 5566 5563 5560 5557
5626 5625 5624 5623 5622 5620 5619 5618 5616 5615 5613 5612 5610 5609 5607 5605 5604 5602 5600 5598 5596 5594 5592 5589 5587 5585 5583 5581 5579 5577 5575 5573 5571 5569 5566 5564 5561 5558 5556 5553 5551 5548 5545
5615 5614 5613 5612 5611 5609 5608 5607 5605 5603 5602 5600 5598 5597 5595 5593 5592 5590 5588 5585 5583 5581 5579 5577 5575 5573 5571 5569 5566 5564 5562 5561 5558 5556 5554 5551 5549 5546 5544 5541 5539 5536 5533
5605 5603 5602 5601 5600 5598 5597 5595 5593 5591 5590 5588 5586 5584 5582 5581 5579 5577 5575 5573 5571 5569 5567 5565 5563 5560 5559 5557 5554 5552 5550 5549 5546 5544 5542 5539 5537 5534 5532 5529 5527 5524 5521
5594 5592 5591 5590 5588 5587 5585 5584 5582 5580 5578 5576 5574 5572 5570 5568 5566 5565 5563 5561 5559 5557 5555 5553 5551 5549 5546 5544 5542 5540 5538 5536 5534 5532 5530 5527 5525 5523 5520 5518 5515 5512 5509
5582 5581 5579 5578 5576 5574 5573 5572 5570 5568 5566 5564 5562 5560 5558 5556 5554 5552 5551 5549 5547 5545 5542 5541 5539 5537 5535 5533 5530 5528 5526 5524 5522 5520 5518 5516 5514 5511 5509 5506 5504 5501 5498
5571 5569 5567 5566 5565 5562 5561 5559 5558 5556 5554 5552 5550 5548 5546 5544 5542 5540 5538 5537 5535 5533 5531 5529 5527 5525 5523 5521 5519 5516 5514 5512 5511 5509 5507 5505 5502 5500 5498 5495 5493 5490 5486
5559 5557 5555 5554 5553 5551 5549 5547 5545 5544 5542 5540 5538 5536 5534 5533 5531 5529 5527 5525 5523 5521 5519 5518 5516 5514 5512 5510 5508 5505 5503 5501 5500 5498 5496 5494 5491 5489 5487 5484 5481 5478 5475
5547 5545 5544 5542 5541 5539 5537 5535 5533 5531 5530 5528 5526 5524 5523 5521 5519 5517 5515 5513 5512 5510 5508 5507 5505 5503 5501 5499 5497 5495 5493 5491 5489 5487 5485 5483 5481 5479 5476 5474 5470 5467 5464
5535 5533 5532 5531 5529 5527 5525 5523 5521 5519 5518 5516 5514 5513 5511 5509 5507 5505 5504 5502 5500 5499 5497 5495 5494 5492 5490 5488 5486 5484 5482 5480 5478 5477 5475 5473 5471 5468 5466 5463 5460 5456 5453